Date,TemperatureHighF,TemperatureAvgF,TemperatureLowF,DewpointHighF,DewpointAvgF,DewpointLowF,HumidityHigh,HumidityAvg,HumidityLow,PressureMaxIn,PressureMinIn,WindSpeedMaxMPH,WindSpeedAvgMPH,GustSpeedMaxMPH,PrecipitationSumIn
2013-1-1,76.5,64.3,52.4,61.0,57.8,51.0,99,81,57,30.22,30.05,6,1,10,0.00
2013-1-2,78.2,67.4,61.1,70.0,65.0,60.0,99,92,73,30.07,30.00,6,1,8,0.00
2013-1-3,75.1,64.5,58.2,69.0,63.3,58.0,100,96,73,30.16,30.03,8,1,14,0.25
2013-1-4,60.6,57.8,54.9,59.0,57.1,55.0,99,97,91,30.28,30.15,8,2,12,0.10
2013-1-5,72.7,62.9,55.7,63.0,58.2,53.0,98,85,69,30.30,30.18,8,2,11,0.00
2013-1-6,79.0,66.9,60.7,71.0,64.5,60.0,99,92,75,30.19,30.08,5,1,10,0.06
2013-1-7,64.4,62.0,59.3,64.0,59.9,56.0,98,92,80,30.21,30.11,10,3,13,0.01
2013-1-8,81.4,70.2,60.9,70.0,65.2,60.0,98,85,63,30.22,30.12,7,2,11,0.00
2013-1-9,83.6,74.5,67.9,72.0,68.4,66.0,98,83,60,30.28,30.16,10,2,11,0.00
2013-1-10,81.6,73.3,67.2,70.0,67.0,64.0,99,82,58,30.29,30.20,8,2,14,0.00
2013-1-11,83.1,72.2,64.9,69.0,65.3,63.0,96,80,53,30.26,30.13,8,1,15,0.00
2013-1-12,82.0,71.9,66.0,70.0,66.5,65.0,95,84,62,30.18,30.08,9,2,11,0.00
2013-1-13,82.1,71.0,65.3,68.0,65.4,64.0,96,83,59,30.17,30.06,8,1,11,0.00
2013-1-14,82.0,69.7,61.4,66.0,62.7,60.0,96,80,52,30.18,30.11,6,1,10,0.00
2013-1-15,81.0,68.9,59.6,67.0,63.6,59.0,98,84,60,30.15,30.06,6,1,12,0.00
2013-1-16,81.9,69.2,61.1,67.0,63.7,61.0,100,85,50,30.11,30.01,6,0,8,0.01
2013-1-17,69.9,61.9,53.1,69.0,58.6,45.0,100,89,70,30.16,30.00,10,2,15,0.14
2013-1-18,62.1,53.6,41.5,55.0,46.6,36.0,84,77,68,30.32,30.16,10,3,16,0.00
2013-1-19,73.4,63.2,53.8,61.0,55.6,48.0,88,77,64,30.28,30.13,11,3,14,0.00
2013-1-20,74.0,65.8,59.6,63.0,59.9,56.0,93,81,67,30.18,30.05,8,2,9,0.00
2013-1-21,75.1,64.6,57.6,64.0,58.2,53.0,95,80,65,30.11,30.03,6,1,9,0.00
2013-1-22,65.6,58.5,49.0,52.0,41.8,32.0,83,57,31,30.29,30.08,11,2,12,0.00
2013-1-23,68.2,55.2,46.7,45.0,39.5,35.0,89,59,32,30.38,30.27,8,1,10,0.00
2013-1-24,72.0,56.3,44.3,53.0,48.1,43.0,98,77,41,30.35,30.26,6,1,12,0.00
2013-1-25,74.6,59.0,48.7,59.0,51.2,49.0,100,79,44,30.32,30.20,7,0,7,0.01
2013-1-26,74.5,60.4,47.5,59.0,54.6,47.0,100,84,53,30.29,30.18,6,0,9,0.01
2013-1-27,76.7,64.7,52.9,61.0,55.8,52.0,100,76,46,30.31,30.21,7,2,11,0.01
2013-1-28,81.1,69.8,62.8,66.0,62.7,59.0,95,79,54,30.32,30.20,7,1,10,0.00
2013-1-29,83.6,70.6,62.3,69.0,65.3,61.0,98,84,57,30.24,30.09,5,1,13,0.00
2013-1-30,79.1,71.7,65.9,68.0,66.4,64.0,92,84,67,30.09,29.92,12,3,20,0.00
2013-1-31,69.7,56.2,44.2,67.0,45.7,35.0,98,70,43,30.25,29.92,12,2,16,0.17
2013-2-1,66.9,54.0,44.5,44.0,36.0,24.0,88,56,20,30.37,30.23,7,1,14,0.00
2013-2-2,72.0,56.3,46.5,48.0,42.8,34.0,87,64,28,30.32,30.17,9,1,9,0.00
2013-2-3,70.3,54.7,41.2,54.0,48.2,40.0,99,81,55,30.21,30.11,6,1,11,0.00
2013-2-4,70.1,53.8,42.4,54.0,43.4,33.0,99,73,31,30.15,30.05,7,1,11,0.01
2013-2-5,76.3,59.7,45.8,55.0,49.6,43.0,92,73,44,30.10,30.01,4,1,9,0.00
2013-2-6,80.5,67.9,58.5,64.0,60.0,56.0,94,77,49,30.11,30.03,5,1,8,0.00
2013-2-7,79.8,69.1,62.5,67.0,64.2,60.0,97,85,58,30.06,29.85,7,2,19,0.06
2013-2-8,76.8,66.5,55.7,66.0,61.7,55.0,97,85,59,30.09,29.91,8,1,11,0.00
2013-2-9,75.3,63.9,53.7,58.0,54.7,52.0,99,75,46,30.20,30.08,8,2,13,0.01
2013-2-10,80.9,69.2,61.7,64.0,60.7,56.0,89,75,52,30.24,30.13,10,2,17,0.00
2013-2-11,81.2,70.1,62.6,68.0,64.4,60.0,96,83,62,30.20,30.09,10,2,14,0.00
2013-2-12,80.0,71.5,65.0,72.0,68.6,65.0,99,91,74,30.10,29.96,12,1,15,0.01
2013-2-13,80.6,70.7,60.5,74.0,68.0,55.0,99,91,78,30.00,29.86,9,2,15,0.08
2013-2-14,63.7,60.7,58.5,61.0,58.9,57.0,98,94,87,30.05,29.93,6,0,9,0.55
2013-2-15,68.1,59.4,55.1,59.0,55.1,47.0,99,86,48,30.09,29.97,4,1,7,0.05
2013-2-16,67.9,56.8,48.5,54.0,47.4,36.0,96,72,51,30.14,29.96,8,2,16,0.00
2013-2-17,53.4,45.9,35.9,38.0,26.8,20.0,85,49,31,30.35,30.15,11,2,16,0.00
2013-2-18,68.5,52.1,35.4,49.0,38.7,28.0,87,63,38,30.37,30.21,8,2,12,0.00
2013-2-19,76.4,64.2,51.6,62.0,56.7,49.0,97,78,57,30.22,30.09,11,1,14,0.00
2013-2-20,79.2,65.7,59.5,65.0,61.1,55.0,99,86,58,30.13,30.02,6,1,9,0.00
2013-2-21,82.3,68.0,59.1,68.0,62.2,56.0,94,83,60,30.11,29.99,8,1,10,0.00
2013-2-22,82.8,71.4,63.0,71.0,66.8,62.0,97,86,66,30.07,30.00,7,2,12,0.00
2013-2-23,80.7,72.1,68.3,73.0,69.8,67.0,98,92,77,30.01,29.91,5,1,12,0.00
2013-2-24,82.6,71.8,67.8,72.0,69.3,68.0,99,92,70,29.97,29.88,10,0,13,0.00
2013-2-25,82.0,73.3,67.0,73.0,69.7,67.0,99,89,72,29.90,29.78,6,1,14,0.00
2013-2-26,74.1,70.6,65.3,72.0,67.6,61.0,97,90,77,29.90,29.71,7,2,18,0.54
2013-2-27,73.2,64.1,56.2,62.0,57.2,53.0,96,79,59,29.99,29.88,6,1,10,0.00
2013-2-28,72.8,61.4,51.4,58.0,53.0,48.0,98,76,53,30.02,29.93,7,1,11,0.00
2013-3-1,63.8,56.1,48.7,49.0,44.8,39.0,92,67,54,30.04,29.93,6,1,13,0.00
2013-3-2,59.1,53.3,47.6,46.0,40.8,38.0,86,63,52,30.10,30.00,10,2,15,0.02
2013-3-3,54.4,47.9,42.2,40.0,36.0,31.0,73,64,56,30.18,30.00,7,2,17,0.00
2013-3-4,63.1,51.1,38.9,43.0,37.8,31.0,90,62,38,30.25,30.15,7,1,11,0.00
2013-3-5,72.6,58.7,40.3,62.0,52.1,39.0,96,80,59,30.18,30.05,7,1,11,0.00
2013-3-6,65.0,58.7,52.3,64.0,47.6,40.0,96,69,44,30.15,29.98,11,2,22,0.02
2013-3-7,65.2,51.6,42.5,43.0,38.5,34.0,94,63,37,30.25,30.14,10,1,12,0.00
2013-3-8,73.7,56.1,41.6,50.0,44.0,39.0,98,69,32,30.24,30.14,7,1,12,0.00
2013-3-9,75.3,61.9,48.7,53.0,47.8,43.0,93,63,34,30.23,30.13,9,2,12,0.00
2013-3-10,77.7,65.9,57.9,58.0,55.4,52.0,89,71,46,30.16,30.05,8,2,14,0.00
2013-3-11,77.7,68.0,60.6,63.0,59.7,57.0,88,76,56,30.10,29.90,11,2,14,0.00
2013-3-12,67.6,63.7,53.3,66.0,60.3,51.0,98,89,73,30.06,29.86,9,2,13,0.44
2013-3-13,71.9,59.9,51.9,52.0,44.5,32.0,93,61,25,30.20,30.06,10,2,19,0.00
2013-3-14,65.0,56.6,51.2,50.0,37.6,26.0,87,52,23,30.29,30.18,11,2,18,0.00
2013-3-15,68.7,55.6,40.7,48.0,40.8,31.0,97,63,29,30.30,30.18,7,1,13,0.00
2013-3-16,76.0,58.2,44.8,60.0,49.7,44.0,98,77,38,30.20,30.09,4,1,10,0.00
2013-3-17,77.9,63.3,50.4,63.0,57.0,50.0,99,82,54,30.14,30.01,5,1,12,0.00
2013-3-18,73.1,67.1,60.5,68.0,63.1,58.0,94,87,78,30.04,29.90,7,1,15,0.00
2013-3-19,84.6,70.4,62.0,67.0,63.9,61.0,99,81,52,30.02,29.90,6,1,10,0.00
2013-3-20,71.9,65.5,58.0,66.0,62.4,57.0,98,90,74,29.98,29.82,7,1,11,0.18
2013-3-21,68.1,57.7,45.6,58.0,44.2,29.0,99,67,24,30.01,29.89,7,1,15,0.01
2013-3-22,76.2,61.1,43.9,68.0,53.1,42.0,96,77,46,30.01,29.90,5,1,10,0.04
2013-3-23,82.2,71.7,64.7,75.0,69.1,64.0,99,92,77,29.97,29.81,7,2,12,0.00
2013-3-24,80.3,72.4,68.7,74.0,70.6,66.0,99,94,82,29.83,29.67,5,1,14,0.00
2013-3-25,68.3,61.6,51.9,66.0,49.5,36.0,97,67,36,30.07,29.76,10,2,16,0.00
2013-3-26,57.4,53.4,45.2,47.0,38.0,35.0,75,57,43,30.27,30.06,10,2,22,0.00
2013-3-27,58.0,49.0,40.7,40.0,35.9,30.0,88,62,44,30.35,30.23,8,1,13,0.00
2013-3-28,70.6,54.0,39.1,44.0,37.4,30.0,96,61,24,30.32,30.21,8,1,9,0.00
2013-3-29,75.4,58.9,44.0,50.0,43.5,35.0,96,63,24,30.34,30.20,7,1,12,0.00
2013-3-30,76.8,63.0,49.8,57.0,52.3,46.0,93,71,43,30.26,30.15,6,1,12,0.00
2013-3-31,79.9,66.5,54.8,63.0,58.0,52.0,95,76,47,30.18,30.02,9,1,12,0.00
2013-4-1,81.6,71.7,65.1,71.0,66.1,62.0,96,83,66,30.05,29.97,6,1,14,0.00
2013-4-2,82.1,69.8,60.2,67.0,63.3,60.0,99,82,55,30.10,30.01,5,1,11,0.01
2013-4-3,86.0,72.1,62.2,70.0,65.8,61.0,96,82,53,30.08,29.95,9,2,14,0.05
2013-4-4,71.6,68.7,65.9,69.0,67.1,65.0,99,94,82,30.06,29.86,7,1,14,0.75
2013-4-5,74.3,66.8,61.6,68.0,61.1,56.0,97,83,57,30.00,29.82,7,1,13,0.02
2013-4-6,76.1,65.1,55.3,60.0,56.6,52.0,91,75,53,30.11,30.00,7,2,13,0.00
2013-4-7,81.6,71.3,59.6,62.0,59.7,57.0,95,69,45,30.16,30.05,9,1,11,0.00
2013-4-8,85.0,73.7,65.9,66.0,61.2,57.0,86,67,39,30.13,30.04,7,2,12,0.00
2013-4-9,84.1,74.1,64.9,67.0,64.6,63.0,93,73,54,30.15,30.06,7,2,13,0.00
2013-4-10,90.2,75.9,66.2,69.0,65.7,63.0,92,72,46,30.11,29.96,8,2,12,0.00
2013-4-11,90.3,77.6,71.1,73.0,71.0,66.0,95,81,57,29.98,29.81,8,3,17,0.00
2013-4-12,78.1,75.6,71.2,75.0,72.6,68.0,94,90,82,29.93,29.79,9,2,17,0.00
2013-4-13,87.0,75.5,67.1,71.0,68.1,65.0,98,79,59,29.98,29.89,5,1,11,0.00
2013-4-14,85.0,75.3,66.6,75.0,69.5,61.0,94,82,70,30.00,29.86,11,2,15,0.02
2013-4-15,91.1,77.1,66.3,72.0,66.5,61.0,88,71,51,30.07,29.93,6,1,11,0.00
2013-4-16,90.9,79.2,67.6,74.0,69.3,66.0,96,74,48,30.13,30.03,12,3,13,0.00
2013-4-17,86.4,77.8,69.4,69.0,65.9,61.0,91,69,43,30.14,30.01,9,3,15,0.00
2013-4-18,89.8,78.2,70.2,73.0,69.0,66.0,88,74,53,30.04,29.95,12,2,14,0.00
2013-4-19,87.8,79.1,72.4,75.0,72.6,70.0,94,81,61,30.01,29.94,10,2,15,0.00
2013-4-20,75.8,69.6,61.6,73.0,64.4,58.0,93,84,70,30.14,29.98,8,2,13,0.01
2013-4-21,81.9,69.8,60.2,70.0,64.5,58.0,95,84,65,30.14,30.02,11,3,11,0.05
2013-4-22,79.0,71.5,67.2,71.0,67.6,63.0,98,88,71,30.08,29.98,9,2,16,0.05
2013-4-23,84.3,73.3,65.6,68.0,64.1,61.0,92,75,49,30.11,30.02,12,3,15,0.00
2013-4-24,86.8,73.6,64.3,67.0,63.1,57.0,92,72,37,30.14,30.08,6,2,14,0.00
2013-4-25,86.5,75.2,62.8,70.0,65.8,61.0,96,74,52,30.21,30.11,7,1,12,0.00
2013-4-26,86.4,76.0,64.0,69.0,66.0,62.0,96,73,48,30.25,30.15,6,1,10,0.00
2013-4-27,86.8,77.4,70.4,69.0,66.9,61.0,92,71,42,30.22,30.08,10,3,15,0.00
2013-4-28,88.5,76.9,69.3,69.0,65.6,62.0,84,70,45,30.13,29.97,9,3,14,0.01
2013-4-29,85.2,75.9,68.1,71.0,68.1,64.0,92,77,58,30.03,29.91,6,1,13,0.26
2013-4-30,89.1,76.4,67.8,73.0,69.4,65.0,98,81,46,30.00,29.91,7,2,14,0.60
2013-5-1,74.3,70.6,66.3,72.0,68.9,66.0,98,94,89,30.00,29.91,9,2,13,1.08
2013-5-2,82.2,72.0,66.2,72.0,68.4,65.0,96,88,68,29.97,29.82,6,2,10,0.00
2013-5-3,84.3,74.7,66.7,72.0,68.6,66.0,98,82,59,29.83,29.73,6,1,15,0.29
2013-5-4,81.6,72.2,64.9,70.0,67.0,64.0,97,84,66,29.83,29.69,12,1,19,0.00
2013-5-5,76.5,69.3,62.5,67.0,56.9,51.0,95,67,42,29.95,29.81,15,2,18,0.00
2013-5-6,76.2,69.3,58.7,64.0,58.1,55.0,87,69,52,30.02,29.91,6,1,12,0.00
2013-5-7,77.0,67.6,55.9,62.0,58.6,54.0,95,75,54,30.07,29.98,9,1,14,0.00
2013-5-8,80.1,69.7,57.5,66.0,60.8,56.0,98,76,49,30.14,30.04,4,1,12,0.00
2013-5-9,84.3,71.8,60.2,68.0,63.6,59.0,99,77,48,30.16,30.09,4,1,9,0.00
2013-5-10,90.3,76.2,63.5,72.0,67.7,62.0,98,77,43,30.14,30.00,5,1,10,0.00
2013-5-11,89.3,78.3,72.0,76.0,72.8,68.0,97,84,58,30.06,30.00,7,1,15,0.00
2013-5-12,87.5,77.3,70.1,76.0,70.7,68.0,98,81,63,30.06,29.95,8,1,10,0.00
2013-5-13,85.5,73.1,62.8,70.0,60.4,47.0,96,68,33,30.14,30.02,6,1,15,0.00
2013-5-14,83.2,71.6,61.1,60.0,49.8,44.0,75,49,26,30.22,30.12,8,1,12,0.00
2013-5-15,85.9,74.8,62.8,63.0,58.8,54.0,86,60,35,30.21,30.07,7,2,12,0.00
2013-5-16,87.6,76.2,66.3,68.0,63.7,58.0,88,67,41,30.14,30.00,8,2,9,0.00
2013-5-17,88.0,78.0,68.7,70.0,66.5,64.0,88,69,50,30.10,30.02,7,1,10,0.00
2013-5-18,91.4,79.8,71.7,74.0,69.0,61.0,94,72,41,30.11,30.02,8,1,10,0.00
2013-5-19,90.8,79.3,68.2,74.0,68.0,66.0,98,71,46,30.10,29.99,6,1,10,0.00
2013-5-20,92.4,79.6,72.7,75.0,70.2,66.0,87,74,52,30.07,29.97,10,2,15,0.00
2013-5-21,88.6,77.0,70.7,72.0,70.1,68.0,95,80,55,30.03,29.93,7,2,15,0.04
2013-5-22,88.7,78.9,71.8,74.0,70.6,68.0,92,77,55,29.97,29.89,6,1,10,0.00
2013-5-23,88.8,79.5,69.3,75.0,71.6,69.0,98,78,58,30.02,29.92,10,1,13,0.00
2013-5-24,93.5,81.4,71.3,76.0,70.4,64.0,97,72,43,30.08,29.98,5,1,10,0.00
2013-5-25,90.0,81.2,74.1,70.0,65.8,60.0,84,61,37,30.17,30.05,11,3,16,0.00
2013-5-26,86.1,77.8,70.3,65.0,59.4,51.0,78,56,30,30.21,30.10,12,3,16,0.00
2013-5-27,88.1,78.9,71.1,68.0,64.4,62.0,80,63,43,30.18,30.04,14,4,16,0.00
2013-5-28,90.2,78.7,72.4,76.0,71.0,68.0,90,78,52,30.14,30.02,14,5,20,0.00
2013-5-29,87.9,78.6,73.1,73.0,71.3,69.0,93,79,54,30.09,30.02,14,5,21,0.01
2013-5-30,88.9,79.8,75.3,73.0,71.9,70.0,90,77,59,30.08,30.00,15,5,18,0.00
2013-5-31,86.5,78.3,73.7,76.0,72.0,69.0,96,81,64,30.08,30.00,11,4,15,0.87
2013-6-1,88.2,78.6,73.8,78.0,73.8,71.0,98,85,67,30.05,29.95,7,2,11,1.83
2013-6-2,90.9,80.5,72.5,77.0,74.6,72.0,98,83,61,29.99,29.90,4,0,10,0.00
2013-6-3,87.9,79.9,74.4,78.0,74.9,73.0,96,85,65,30.00,29.90,5,1,12,0.09
2013-6-4,86.1,80.1,75.7,76.0,74.0,72.0,92,82,70,30.01,29.94,5,1,10,0.01
2013-6-5,84.0,77.9,73.5,75.0,73.0,71.0,94,85,70,30.00,29.88,8,2,19,0.15
2013-6-6,80.1,75.6,73.1,77.0,73.7,72.0,99,94,80,29.88,29.66,10,4,20,3.72
2013-6-7,87.1,79.5,71.7,77.0,74.0,70.0,98,84,68,29.96,29.79,6,1,10,0.00
2013-6-8,90.0,79.3,71.4,80.0,74.6,71.0,99,86,66,30.09,29.96,6,1,15,2.38
2013-6-9,91.0,79.6,71.4,78.0,74.3,71.0,100,85,61,30.09,30.01,7,1,14,0.00
2013-6-10,92.7,82.5,75.8,78.0,75.0,72.0,95,79,58,30.09,30.01,6,1,10,0.00
2013-6-11,92.0,81.6,75.7,78.0,75.2,72.0,96,81,56,30.09,30.02,4,0,6,0.06
2013-6-12,93.2,82.5,72.5,80.0,74.2,71.0,96,77,55,30.09,30.01,4,0,7,0.03
2013-6-13,92.5,82.4,73.9,78.0,74.7,73.0,98,79,57,30.05,29.91,7,1,11,0.00
2013-6-14,89.5,82.6,76.9,76.0,74.4,73.0,87,77,61,29.96,29.88,6,1,14,0.00
2013-6-15,90.5,83.0,77.6,79.0,76.2,74.0,92,80,67,30.05,29.92,6,1,9,0.00
2013-6-16,94.0,83.8,77.9,80.0,76.8,75.0,93,80,62,30.08,30.02,6,2,11,0.00
2013-6-17,94.3,85.6,76.4,78.0,75.4,73.0,93,73,52,30.07,29.99,8,1,9,0.00
2013-6-18,93.8,84.2,75.0,79.0,75.6,73.0,95,77,54,30.06,29.97,7,1,11,0.00
2013-6-19,94.0,85.1,76.2,80.0,76.5,74.0,97,77,57,30.04,29.97,4,1,12,0.07
2013-6-20,94.0,84.0,77.2,77.0,74.5,71.0,93,74,51,30.10,30.01,5,1,9,0.00
2013-6-21,92.2,81.5,74.3,76.0,73.0,71.0,92,77,53,30.11,30.04,6,1,19,0.01
2013-6-22,94.2,81.9,71.0,75.0,72.3,69.0,98,75,48,30.12,30.04,8,1,13,1.53
2013-6-23,93.9,81.1,73.9,77.0,74.1,69.0,97,81,46,30.13,30.05,5,1,16,0.38
2013-6-24,92.5,83.5,76.5,76.0,74.3,71.0,95,75,50,30.18,30.05,7,2,10,0.06
2013-6-25,93.1,82.5,70.1,77.0,73.8,68.0,98,77,46,30.14,30.02,8,1,12,1.34
2013-6-26,92.3,80.3,72.8,78.0,75.2,73.0,100,86,57,30.07,30.01,10,1,17,1.30
2013-6-27,92.6,82.2,72.4,79.0,75.2,72.0,99,81,59,30.05,29.95,8,1,10,0.01
2013-6-28,90.3,83.1,74.2,79.0,76.1,73.0,98,80,65,29.98,29.85,8,1,13,0.06
2013-6-29,83.2,78.9,73.4,79.0,75.4,72.0,97,89,77,29.89,29.80,12,0,13,0.47
2013-6-30,89.7,81.8,75.0,80.0,76.5,73.0,95,84,66,29.89,29.80,7,1,16,0.33
2013-7-1,79.4,75.4,71.0,77.0,74.2,70.0,99,96,90,29.98,29.84,9,1,14,2.96
2013-7-2,90.1,78.3,72.6,79.0,74.3,72.0,99,88,62,30.08,29.95,11,2,27,0.64
2013-7-3,90.0,77.1,71.6,80.0,74.4,70.0,99,91,65,30.12,30.03,8,2,10,2.58
2013-7-4,92.1,77.9,72.8,78.0,73.9,72.0,98,88,59,30.15,30.05,9,2,14,0.46
2013-7-5,88.3,77.0,71.4,79.0,74.6,71.0,99,92,67,30.14,30.06,11,2,25,1.13
2013-7-6,91.9,81.2,74.1,78.0,75.3,73.0,97,83,54,30.11,30.02,11,2,14,0.00
2013-7-7,92.6,82.2,76.3,77.0,75.2,73.0,97,80,56,30.13,30.02,12,2,14,0.13
2013-7-8,92.0,82.0,76.7,78.0,75.2,72.0,97,81,53,30.15,30.07,8,2,10,0.01
2013-7-9,92.4,82.3,73.2,77.0,73.9,71.0,97,77,51,30.16,30.04,6,1,10,0.00
2013-7-10,91.4,81.7,74.5,76.0,73.6,70.0,94,78,52,30.09,29.96,7,1,12,0.02
2013-7-11,88.4,80.0,74.4,79.0,75.4,73.0,97,86,66,30.03,29.93,5,0,10,0.47
2013-7-12,90.4,81.3,74.5,79.0,75.2,73.0,97,82,61,29.96,29.89,6,1,10,0.03
2013-7-13,90.4,80.0,75.1,77.0,74.4,71.0,96,83,64,29.98,29.90,8,1,12,0.01
2013-7-14,89.8,79.6,74.1,79.0,74.7,72.0,96,85,66,30.07,29.95,5,2,10,0.00
2013-7-15,91.2,80.6,74.6,75.0,72.9,72.0,93,79,55,30.11,30.01,8,2,11,0.00
2013-7-16,90.6,78.8,73.3,75.0,73.3,72.0,96,84,56,30.15,30.07,11,3,22,0.16
2013-7-17,89.3,77.8,71.4,76.0,73.7,70.0,98,88,59,30.15,30.07,10,2,14,0.82
2013-7-18,86.8,77.2,73.8,75.0,73.5,72.0,98,89,67,30.11,30.04,8,2,13,0.22
2013-7-19,89.4,77.5,72.8,78.0,74.2,72.0,99,90,68,30.12,30.05,8,1,12,0.48
2013-7-20,93.5,79.8,73.6,79.0,74.7,72.0,97,85,61,30.11,30.02,5,1,18,0.00
2013-7-21,93.1,83.0,74.6,80.0,77.0,73.0,98,83,63,30.12,30.05,5,1,12,0.00
2013-7-22,92.3,83.9,77.2,80.0,77.5,76.0,97,82,66,30.14,30.06,8,1,13,0.00
2013-7-23,90.4,83.1,76.4,78.0,76.1,74.0,94,80,65,30.10,29.97,5,1,14,0.00
2013-7-24,89.6,83.7,79.6,78.0,76.4,75.0,90,79,66,30.01,29.91,11,2,16,0.03
2013-7-25,89.5,83.4,78.3,78.0,77.0,76.0,93,81,66,30.01,29.88,9,3,18,0.14
2013-7-26,92.0,82.3,75.4,80.0,77.1,74.0,100,85,63,30.02,29.95,5,0,10,0.27
2013-7-27,93.8,84.1,76.5,79.0,75.9,73.0,99,79,52,30.00,29.93,5,1,11,0.00
2013-7-28,92.6,82.7,74.9,79.0,75.1,72.0,97,79,58,30.05,29.94,7,0,10,0.00
2013-7-29,94.5,82.4,73.1,78.0,75.1,72.0,97,80,59,30.14,30.02,4,0,11,0.29
2013-7-30,93.9,82.4,74.0,79.0,75.5,73.0,99,82,51,30.17,30.06,8,1,9,0.65
2013-7-31,94.1,83.1,75.7,81.0,76.3,72.0,100,82,52,30.13,30.01,7,1,8,0.04
2013-8-1,90.1,90.0,89.9,72.0,71.5,71.0,55,54,54,30.01,30.01,1,0,4,0.00
2013-8-2,93.8,85.3,73.3,80.0,77.0,71.0,98,77,62,30.04,29.96,4,1,14,0.12
2013-8-3,92.9,84.4,75.1,80.0,76.5,74.0,98,78,60,30.09,30.00,8,1,11,0.00
2013-8-4,92.2,85.0,76.8,80.0,77.5,76.0,98,79,64,30.09,30.00,10,1,14,0.01
2013-8-5,94.4,86.2,78.7,80.0,77.8,76.0,92,76,62,30.03,29.94,10,1,13,0.00
2013-8-6,92.6,82.1,73.7,81.0,77.5,72.0,97,86,66,29.99,29.89,4,0,16,1.12
2013-8-7,93.6,81.2,71.6,79.0,76.1,70.0,100,85,56,29.97,29.89,13,1,21,1.20
2013-8-8,93.5,81.7,73.5,79.0,76.3,72.0,99,85,59,30.02,29.92,9,2,11,0.43
2013-8-9,92.7,80.4,73.3,78.0,75.2,72.0,97,85,53,30.06,29.96,8,1,9,0.20
2013-8-10,93.2,83.1,75.0,78.0,75.6,73.0,96,79,57,30.12,30.03,5,1,13,0.00
2013-8-11,94.1,85.5,77.9,79.0,76.3,74.0,92,75,53,30.15,30.04,9,2,10,0.00
2013-8-12,93.2,84.3,75.6,80.0,77.6,74.0,97,81,59,30.13,30.00,7,1,11,0.40
2013-8-13,94.8,83.9,74.7,79.0,76.6,71.0,99,80,48,30.05,29.93,6,1,10,0.01
2013-8-14,94.1,84.9,76.3,80.0,77.0,74.0,94,78,61,30.00,29.93,7,1,9,0.02
2013-8-15,91.1,83.2,76.5,79.0,76.3,74.0,93,80,65,30.04,29.95,6,1,14,0.00
2013-8-16,94.7,84.7,79.4,79.0,76.3,73.0,89,76,55,30.04,29.96,5,0,12,0.03
2013-8-17,94.0,82.2,73.3,81.0,75.1,72.0,98,80,58,30.08,29.98,9,1,12,0.63
2013-8-18,92.7,81.8,75.1,79.0,76.4,74.0,98,85,60,30.10,30.01,9,2,12,0.23
2013-8-19,93.6,80.6,74.0,79.0,75.7,73.0,98,86,55,30.07,29.95,7,2,11,1.26
2013-8-20,91.5,80.6,73.2,79.0,75.4,73.0,99,85,58,30.08,29.99,6,1,8,0.01
2013-8-21,93.4,81.6,75.1,79.0,75.9,72.0,97,84,55,30.10,29.98,19,2,22,0.25
2013-8-22,92.4,80.6,72.8,79.0,76.2,71.0,97,87,60,30.08,29.97,10,2,12,0.75
2013-8-23,93.2,81.2,76.7,79.0,76.0,72.0,98,85,55,30.02,29.95,7,1,12,0.09
2013-8-24,94.0,82.1,76.2,78.0,75.3,73.0,95,81,53,30.11,29.99,11,2,16,0.00
2013-8-25,88.2,79.6,75.4,77.0,74.8,73.0,94,85,66,30.16,30.07,9,1,16,0.00
2013-8-26,91.9,80.1,74.9,77.0,74.7,72.0,96,85,53,30.14,30.00,7,1,17,0.14
2013-8-27,90.6,80.5,73.9,77.0,74.4,71.0,97,83,53,30.05,29.97,10,2,14,0.04
2013-8-28,90.4,79.6,70.9,76.0,73.3,70.0,99,82,53,30.06,29.97,6,1,10,0.00
2013-8-29,92.5,82.1,72.2,76.0,73.2,70.0,96,76,54,30.04,29.94,6,1,10,0.00
2013-8-30,90.9,81.5,76.0,78.0,75.6,72.0,95,83,61,30.00,29.90,5,0,11,0.02
2013-8-31,90.6,81.0,73.1,78.0,74.4,72.0,97,81,60,29.99,29.89,4,0,14,0.95
2013-9-1,92.0,83.1,75.1,80.0,75.5,73.0,95,79,60,29.99,29.92,4,0,9,0.05
2013-9-2,91.8,82.4,76.2,79.0,75.6,74.0,97,81,60,30.02,29.94,6,0,10,0.21
2013-9-3,93.0,83.4,73.9,80.0,75.9,73.0,98,79,58,30.03,29.93,8,1,10,0.41
2013-9-4,93.1,81.5,74.9,78.0,75.3,72.0,97,83,57,30.09,29.97,7,1,18,0.08
2013-9-5,94.2,81.8,75.0,80.0,75.5,73.0,96,83,52,30.09,29.99,8,1,10,0.36
2013-9-6,92.2,80.8,73.4,80.0,75.9,71.0,98,86,57,30.06,29.94,7,1,15,0.23
2013-9-7,90.6,78.8,71.3,75.0,72.4,70.0,97,82,54,30.02,29.92,8,1,14,0.10
2013-9-8,90.3,80.8,71.0,76.0,73.1,70.0,98,79,54,29.97,29.86,10,1,11,0.01
2013-9-9,91.9,83.4,74.5,75.0,72.7,69.0,94,72,51,30.02,29.93,15,2,15,0.00
2013-9-10,90.8,83.0,76.3,75.0,72.7,66.0,92,73,48,30.08,29.98,12,3,18,0.00
2013-9-11,91.6,82.8,75.2,76.0,72.7,69.0,92,73,48,30.07,29.98,11,3,14,0.00
2013-9-12,89.2,79.8,73.8,78.0,74.5,72.0,97,84,61,30.02,29.88,7,1,11,0.61
2013-9-13,88.4,78.5,71.2,78.0,74.2,71.0,99,87,68,29.91,29.82,7,0,10,0.31
2013-9-14,91.5,81.4,73.3,78.0,75.1,73.0,99,82,63,29.97,29.84,5,0,9,0.00
2013-9-15,93.0,79.8,70.8,78.0,74.5,69.0,96,85,55,30.09,29.95,10,2,24,0.07
2013-9-16,91.9,79.0,73.0,76.0,73.9,72.0,98,85,57,30.07,29.97,9,2,18,0.01
2013-9-17,90.3,79.6,73.9,76.0,73.6,72.0,96,83,58,30.05,29.94,9,2,14,0.10
2013-9-18,89.7,79.4,73.4,77.0,74.3,71.0,95,85,62,30.03,29.95,12,2,17,0.29
2013-9-19,89.4,79.3,73.5,77.0,73.9,72.0,97,84,61,30.05,29.96,7,2,11,0.31
2013-9-20,88.2,80.3,72.0,74.0,71.7,69.0,97,77,54,30.03,29.89,7,2,11,0.00
2013-9-21,90.4,81.0,72.9,75.0,71.6,68.0,88,74,52,29.94,29.78,4,1,9,0.00
2013-9-22,90.0,81.9,77.4,79.0,76.5,75.0,94,84,68,29.85,29.76,8,1,12,0.02
2013-9-23,81.5,77.7,75.0,78.0,76.1,74.0,98,94,89,29.94,29.83,5,1,10,1.18
2013-9-24,79.5,76.5,73.2,77.0,75.5,73.0,99,96,91,29.96,29.84,6,1,10,1.71
2013-9-25,79.6,75.0,69.2,78.0,73.7,69.0,99,96,89,29.94,29.80,5,1,20,3.05
2013-9-26,89.0,81.2,72.6,81.0,76.5,71.0,96,86,69,29.88,29.79,9,1,13,0.17
2013-9-27,86.3,77.1,69.4,73.0,70.6,68.0,96,81,61,29.97,29.87,8,2,13,0.00
2013-9-28,87.4,77.9,70.9,74.0,71.4,69.0,96,81,58,30.02,29.92,13,2,13,0.16
2013-9-29,88.0,78.9,70.2,72.0,70.2,62.0,94,76,46,30.00,29.89,6,1,11,0.00
2013-9-30,89.0,79.7,72.8,74.0,71.7,68.0,93,78,54,30.00,29.91,5,1,9,0.00
2013-10-1,89.4,81.3,74.0,75.0,72.3,69.0,94,76,52,30.05,29.96,8,2,13,0.00
2013-10-2,88.5,80.7,73.3,74.0,72.1,70.0,91,76,57,30.05,29.96,8,3,13,0.00
2013-10-3,89.0,80.7,74.2,75.0,71.8,69.0,90,75,53,30.07,29.97,8,2,12,0.00
2013-10-4,88.8,81.0,76.2,75.0,73.4,70.0,91,78,56,30.09,30.00,5,1,9,0.00
2013-10-5,89.3,80.9,74.5,75.0,72.5,71.0,90,76,55,30.06,29.94,10,2,11,0.00
2013-10-6,90.9,80.9,72.8,76.0,73.2,70.0,97,79,51,29.99,29.87,4,1,8,0.00
2013-10-7,88.2,79.4,74.2,79.0,75.7,73.0,98,89,72,29.87,29.76,9,2,16,0.36
2013-10-8,86.7,80.3,75.8,78.0,74.7,71.0,92,83,71,29.96,29.81,8,2,13,0.02
2013-10-9,79.9,74.3,69.2,71.0,69.1,66.0,89,84,69,30.05,29.95,6,2,10,0.00
2013-10-10,86.3,74.2,64.4,72.0,67.3,63.0,97,80,58,30.06,29.97,5,1,8,0.00
2013-10-11,87.7,75.7,64.3,71.0,66.7,64.0,98,76,52,30.05,29.95,5,1,7,0.00
2013-10-12,87.5,74.6,64.5,69.0,64.3,62.0,97,73,42,30.05,29.98,6,1,9,0.00
2013-10-13,85.4,74.0,62.8,71.0,63.9,61.0,97,73,45,30.09,29.99,5,1,8,0.00
2013-10-14,84.8,75.1,66.1,70.0,66.4,64.0,97,76,51,30.05,29.93,7,1,12,0.00
2013-10-15,82.0,73.3,66.8,71.0,68.5,66.0,97,85,68,30.01,29.91,8,1,10,0.00
2013-10-16,84.5,74.0,65.9,72.0,68.8,65.0,99,84,62,29.98,29.90,4,0,9,0.00
2013-10-17,88.5,76.8,68.1,74.0,70.4,67.0,98,82,56,29.98,29.91,4,0,7,0.00
2013-10-18,90.8,78.1,69.2,75.0,72.0,69.0,99,83,57,29.98,29.90,6,1,7,0.00
2013-10-19,89.7,79.2,72.1,78.0,73.9,71.0,96,85,59,29.96,29.88,5,0,11,0.00
2013-10-20,88.7,78.6,72.8,78.0,73.6,71.0,99,85,60,29.96,29.88,5,0,7,0.05
2013-10-21,90.1,78.9,71.7,76.0,73.1,71.0,98,83,59,30.00,29.93,7,1,8,0.00
2013-10-22,88.0,76.6,69.7,78.0,73.0,69.0,99,89,68,29.96,29.83,10,1,12,0.56
2013-10-23,79.8,73.4,68.8,73.0,64.6,54.0,99,76,49,30.02,29.82,9,1,13,0.00
2013-10-24,72.0,66.8,59.6,60.0,51.4,46.0,85,59,48,30.17,30.02,6,1,12,0.00
2013-10-25,79.9,67.5,56.4,61.0,56.0,51.0,96,71,39,30.25,30.15,6,1,11,0.00
2013-10-26,79.1,67.6,60.0,60.0,56.9,47.0,87,71,33,30.21,30.10,6,1,8,0.00
2013-10-27,78.4,66.3,56.5,60.0,56.9,54.0,97,74,46,30.14,30.06,7,1,9,0.00
2013-10-28,82.9,69.6,57.7,63.0,57.6,52.0,94,68,36,30.20,30.10,4,1,7,0.00
2013-10-29,83.6,73.2,63.2,67.0,64.2,62.0,96,75,49,30.23,30.12,11,2,13,0.00
2013-10-30,84.3,74.7,66.3,69.0,66.5,65.0,94,77,54,30.23,30.09,8,2,11,0.00
2013-10-31,86.1,75.5,67.8,71.0,68.1,65.0,94,79,53,30.13,29.98,6,1,11,0.00
2013-11-1,85.5,77.1,71.4,76.0,72.9,69.0,95,87,71,30.00,29.89,8,1,13,0.00
2013-11-2,76.5,70.3,61.7,74.0,68.0,61.0,98,92,79,30.00,29.82,7,0,13,1.02
2013-11-3,75.2,65.6,57.4,61.0,52.4,44.0,99,67,33,30.13,29.98,7,2,16,0.00
2013-11-4,79.4,68.9,59.0,64.0,58.8,52.0,87,71,50,30.15,30.08,17,4,21,0.00
2013-11-5,81.7,73.5,64.9,70.0,66.8,63.0,94,80,65,30.15,30.05,14,4,16,0.00
2013-11-6,84.0,75.7,70.8,69.0,67.4,65.0,89,76,55,30.11,30.01,12,2,14,0.00
2013-11-7,82.4,72.6,66.9,71.0,67.3,65.0,96,84,64,30.06,29.98,3,0,8,0.00
2013-11-8,78.4,70.5,64.7,68.0,63.4,60.0,97,79,59,30.12,30.01,13,2,15,0.00
2013-11-9,81.6,72.8,64.7,68.0,64.2,60.0,85,75,62,30.16,30.08,12,4,16,0.00
2013-11-10,81.6,72.9,66.4,68.0,65.5,63.0,89,78,60,30.17,30.07,6,1,8,0.00
2013-11-11,81.7,71.9,65.5,69.0,65.7,63.0,94,81,60,30.16,30.07,6,2,9,0.00
2013-11-12,79.2,70.1,64.4,69.0,66.0,58.0,98,87,68,30.12,30.02,6,0,10,0.00
2013-11-13,68.6,60.8,53.5,55.0,50.7,47.0,81,70,61,30.31,30.08,15,4,18,0.00
2013-11-14,75.2,63.3,51.8,59.0,54.2,48.0,90,74,54,30.30,30.16,12,3,15,0.00
2013-11-15,71.5,67.8,62.9,66.0,62.6,59.0,90,83,73,30.18,30.06,7,2,10,0.02
2013-11-16,75.7,71.3,67.2,71.0,67.9,65.0,95,89,82,30.12,30.03,7,2,10,0.03
2013-11-17,84.7,74.1,68.2,73.0,68.5,64.0,95,83,64,30.08,30.00,7,1,9,0.00
2013-11-18,83.9,74.2,66.7,73.0,69.9,66.0,98,87,68,30.03,29.94,5,0,8,0.00
2013-11-19,79.6,73.4,67.1,72.0,69.0,61.0,98,86,70,29.98,29.88,7,1,11,0.00
2013-11-20,81.4,71.5,64.4,72.0,66.9,62.0,92,86,72,30.09,29.97,10,2,13,0.00
2013-11-21,83.4,75.0,70.6,73.0,70.2,68.0,95,85,68,30.18,30.08,9,4,14,0.00
2013-11-22,83.1,75.2,69.9,72.0,69.1,66.0,95,82,64,30.18,30.08,9,2,12,0.00
2013-11-23,82.7,71.6,64.0,69.0,65.7,63.0,98,83,58,30.12,30.02,6,1,9,0.00
2013-11-24,69.4,65.1,58.8,66.0,60.1,52.0,95,84,74,30.22,30.04,14,4,17,0.00
2013-11-25,75.4,67.3,58.9,64.0,58.9,52.0,86,75,61,30.22,30.05,10,5,17,0.00
2013-11-26,81.1,72.7,67.6,74.0,70.0,64.0,98,91,78,30.04,29.77,10,3,19,0.11
2013-11-27,71.1,62.8,46.4,71.0,56.7,40.0,98,81,68,30.22,29.75,9,2,15,0.04
2013-11-28,61.6,49.8,37.3,50.0,41.2,32.0,87,73,49,30.36,30.22,7,1,12,0.00
2013-11-29,71.5,60.1,51.5,58.0,53.1,48.0,92,78,55,30.36,30.27,9,2,12,0.00
2013-11-30,75.1,64.2,54.9,63.0,58.3,51.0,94,82,65,30.32,30.18,9,2,14,0.00
2013-12-1,74.4,63.2,57.2,66.0,60.3,56.0,98,91,73,30.20,30.00,4,1,8,0.00
2013-12-2,70.6,62.8,56.7,62.0,57.7,54.0,99,85,61,30.00,29.86,3,0,7,0.00
2013-12-3,76.5,67.2,56.8,67.0,62.7,56.0,98,86,67,29.98,29.89,3,0,9,0.00
2013-12-4,82.8,71.6,63.8,71.0,67.6,63.0,99,88,66,30.08,29.96,5,0,9,0.01
2013-12-5,82.5,71.4,64.9,69.0,66.4,64.0,97,85,61,30.17,30.08,8,1,10,0.00
2013-12-6,83.8,72.3,64.9,73.0,68.8,64.0,99,89,70,30.18,30.09,7,1,14,0.01
2013-12-7,82.8,72.0,65.1,71.0,67.4,65.0,99,86,59,30.23,30.14,6,0,9,0.00
2013-12-8,83.8,72.5,65.4,71.0,67.5,65.0,98,85,62,30.22,30.09,7,1,10,0.01
2013-12-9,82.7,72.5,66.7,73.0,68.7,65.0,97,88,71,30.18,30.09,6,1,10,0.00
2013-12-10,82.7,72.0,63.2,73.0,68.6,63.0,99,90,71,30.17,30.09,4,0,8,0.01
2013-12-11,81.7,70.2,63.5,69.0,64.8,59.0,94,83,63,30.25,30.15,10,2,11,0.00
2013-12-12,71.2,64.0,54.6,65.0,52.3,34.0,97,70,36,30.31,30.19,9,2,12,0.00
2013-12-13,73.9,62.5,50.7,60.0,52.8,40.0,91,72,47,30.29,30.10,9,2,14,0.00
2013-12-14,82.9,72.3,64.9,72.0,67.6,60.0,95,85,69,30.11,29.95,8,3,14,0.00
2013-12-15,72.7,67.4,58.6,72.0,63.3,55.0,98,87,70,30.14,29.90,8,1,13,0.03
2013-12-16,64.2,55.4,49.1,54.0,47.4,43.0,90,75,48,30.24,30.12,9,1,9,0.00
2013-12-17,69.5,56.0,45.3,51.0,46.7,43.0,92,73,47,30.26,30.16,6,1,9,0.00
2013-12-18,69.6,56.9,48.0,54.0,47.8,43.0,98,76,39,30.30,30.21,6,1,11,0.00
2013-12-19,74.9,60.6,45.7,59.0,51.8,44.0,95,75,47,30.28,30.16,8,1,11,0.00
2013-12-20,82.4,71.2,61.4,68.0,63.6,58.0,89,78,61,30.20,30.08,9,2,10,0.00
2013-12-21,85.5,73.6,66.6,72.0,68.3,64.0,95,84,64,30.13,30.02,7,2,14,0.00
2013-12-22,82.7,73.9,68.1,74.0,70.0,68.0,98,88,72,30.13,30.06,10,2,16,0.00
2013-12-23,82.1,73.4,67.4,75.0,70.8,67.0,98,92,77,30.16,30.09,6,1,14,0.01
2013-12-24,71.7,62.7,52.5,71.0,51.0,35.0,96,69,32,30.27,30.12,10,2,13,0.00
2013-12-25,74.2,60.9,48.0,60.0,50.4,38.0,79,69,59,30.26,30.12,11,2,13,0.00
2013-12-26,75.6,66.4,59.0,62.0,59.6,56.0,92,79,59,30.21,30.09,7,1,10,0.00
2013-12-27,70.8,64.6,60.6,66.0,61.4,57.0,94,89,84,30.25,30.13,9,3,12,0.03
2013-12-28,78.1,70.3,63.9,70.0,66.7,62.0,97,88,75,30.21,30.00,8,3,14,0.00
2013-12-29,74.3,68.7,59.9,73.0,67.3,59.0,98,95,91,30.03,29.89,10,2,14,1.12
2013-12-30,65.4,61.1,59.0,61.0,59.2,57.0,99,93,84,30.20,30.02,4,0,9,0.01
2013-12-31,67.1,63.0,59.3,57.0,53.1,51.0,88,71,57,30.30,30.17,8,1,11,0.00
2014-1-1,62.5,60.7,58.1,62.0,58.3,51.0,98,92,68,30.26,30.06,10,3,12,0.11
2014-1-2,77.9,67.3,57.8,73.0,66.0,56.0,99,96,84,30.05,29.85,6,2,15,0.42